Weather History for KPKV - June, 2013

Change the Weather History Date:

Thursday, June 13, 2013

  Actual Average (KVCT) Record (KVCT)
Temperature  
Mean Temperature 82 °F 82 °F  
Max Temperature 86 °F 91 °F 103 °F (1911)
Min Temperature 77 °F 72 °F 57 °F (1903)
Degree Days  
Heating Degree Days 0 0  
Month to date heating degree days 0  
Since 1 June heating degree days 0  
Since 1 July heating degree days 1249  
Cooling Degree Days 16 17  
Month to date cooling degree days 208  
Year to date cooling degree days 867  
Since 1 June cooling degree days 208  
Growing Degree Days 32 (Base 50)    
Moisture  
Dew Point 76 °F    
Average Humidity 85    
Maximum Humidity 93    
Minimum Humidity 71    
Precipitation  
Precipitation 0.00 in 0.15 in 3.26 in (1973)
Month to date precipitation 1.98  
Year to date precipitation 17.36  
Snow  
Snow 0.00 in - - ()
Month to date snowfall  
Since 1 June snowfall  
Since 1 July snowfall  
Snow Depth -    
Sea Level Pressure  
Sea Level Pressure 29.99 in    
Wind  
Wind Speed 5 mph (SSE)    
Max Wind Speed 12 mph    
Max Gust Speed -    
Visibility 10 miles    
Events Rain    
T = Trace of Precipitation, MM = Missing Value Source: NWS Daily Summary

Daily Weather History Graph

Daily Weather History Graph

Search for Another Location

Airport or City:

Trip Planner

Search our weather history database for the weather conditions in past years. The results will help you decide how hot, cold, wet, or windy it might be!

Date:

Astronomy

Jun. 13, 2013 Rise Set
Actual Time 6:28 AM CDT 8:25 PM CDT
Civil Twilight 6:01 AM CDT 8:52 PM CDT
Nautical Twilight 5:28 AM CDT 9:25 PM CDT
Astronomical Twilight 4:54 AM CDT 9:59 PM CDT
Moon 10:48 AM CDT (6/13) 11:53 PM CDT (6/13)
Length of Visible Light 14h 51m
Length of Day
13h 57m
Waxing Crescent, 22% of the Moon is Illuminated
Jun 13
Waxing Crescent
Jun 16
First Quarter
Jun 23
Full
Jun 29
Last Quarter
Jul 8
New

Hourly Weather History & Observations

Time (CDT) Temp. Heat Index Dew Point Humidity Pressure Visibility Wind Dir Wind Speed Gust Speed Precip Events Conditions
12:15 AM 77.9 °F - 75.2 °F 91% 30.01 in 10.0 mi SSE 4.6 mph - N/A   Clear
12:35 AM 78.1 °F - 75.2 °F 91% 30.01 in 10.0 mi SE 5.8 mph - N/A   Clear
12:55 AM 77.5 °F - 74.7 °F 91% 30.01 in 10.0 mi SSE 4.6 mph - N/A   Clear
1:15 AM 77.2 °F - 74.5 °F 91% 30.01 in 10.0 mi SSE 4.6 mph - N/A   Clear
1:35 AM 77.0 °F - 74.5 °F 92% 30.01 in 10.0 mi SSE 3.5 mph - N/A   Clear
1:55 AM 77.0 °F - 74.7 °F 92% 30.00 in 10.0 mi SSE 4.6 mph - N/A   Clear
2:15 AM 77.9 °F - 75.2 °F 91% 30.00 in 10.0 mi SSE 4.6 mph - N/A   Scattered Clouds
2:35 AM 78.1 °F - 75.4 °F 91% 30.00 in 10.0 mi SE 4.6 mph - N/A   Clear
2:55 AM 78.4 °F - 75.6 °F 91% 29.99 in 10.0 mi SSE 5.8 mph - N/A   Clear
3:15 AM 78.8 °F - 75.4 °F 89% 30.00 in 10.0 mi SSE 4.6 mph - N/A   Clear
3:35 AM 78.8 °F - 75.2 °F 89% 30.00 in 10.0 mi SSE 4.6 mph - N/A   Clear
3:55 AM 78.6 °F - 75.2 °F 89% 29.99 in 10.0 mi SSE 4.6 mph - N/A   Clear
4:15 AM 78.3 °F - 75.2 °F 90% 29.99 in 10.0 mi SSE 3.5 mph - N/A   Clear
4:35 AM 77.9 °F - 75.2 °F 91% 29.99 in 10.0 mi SSE 3.5 mph - N/A   Clear
4:55 AM 77.5 °F - 74.8 °F 91% 29.99 in 10.0 mi SSE 3.5 mph - N/A   Clear
5:15 AM 77.2 °F - 74.7 °F 92% 29.99 in 10.0 mi SSE 3.5 mph - N/A   Clear
5:35 AM 77.0 °F - 74.7 °F 92% 29.99 in 10.0 mi SSE 3.5 mph - N/A   Clear
5:55 AM 77.2 °F - 74.8 °F 92% 30.00 in 10.0 mi South 3.5 mph - N/A   Scattered Clouds
6:15 AM 77.4 °F - 74.8 °F 92% 30.00 in 10.0 mi SSE 3.5 mph - N/A   Clear
6:35 AM 77.0 °F - 74.7 °F 92% 30.01 in 10.0 mi ESE 3.5 mph - N/A   Clear
6:55 AM 77.0 °F - 74.7 °F 92% 30.02 in 7.0 mi Calm Calm - N/A   Clear
7:15 AM 77.4 °F - 75.2 °F 93% 30.02 in 7.0 mi SE 3.5 mph - N/A   Clear
8:15 AM 79.7 °F - 76.1 °F 89% 30.03 in 10.0 mi Calm Calm - N/A   Clear
8:35 AM 80.4 °F 86.3 °F 76.1 °F 87% 30.03 in 10.0 mi SSE 3.5 mph - N/A   Clear
9:15 AM 81.7 °F 89.0 °F 76.5 °F 84% 30.04 in 10.0 mi Calm Calm - N/A   Clear
9:35 AM 82.4 °F 90.3 °F 76.3 °F 82% 30.04 in 10.0 mi SE 3.5 mph - N/A   Clear
9:55 AM 82.8 °F 90.7 °F 76.1 °F 80% 30.04 in 10.0 mi ESE 3.5 mph - N/A   Scattered Clouds
10:15 AM 83.1 °F 91.3 °F 75.9 °F 79% 30.04 in 10.0 mi SE 3.5 mph - N/A   Clear
10:35 AM 83.7 °F 92.4 °F 76.3 °F 78% 30.05 in 10.0 mi SSE 3.5 mph - N/A Rain Rain
10:55 AM 84.6 °F 94.3 °F 76.8 °F 77% 30.05 in 10.0 mi South 3.5 mph - N/A   Mostly Cloudy
11:15 AM 86.0 °F 96.4 °F 76.5 °F 73% 30.05 in 10.0 mi SE 4.6 mph - N/A   Scattered Clouds
11:55 AM 86.2 °F 96.9 °F 76.6 °F 73% 30.04 in 10.0 mi ESE 10.4 mph - N/A   Mostly Cloudy
12:15 PM 85.5 °F 95.4 °F 76.3 °F 74% 30.04 in 10.0 mi ESE 11.5 mph - N/A   Mostly Cloudy
12:35 PM 83.7 °F 92.7 °F 76.5 °F 79% 30.03 in 10.0 mi ESE 9.2 mph - N/A   Overcast
1:15 PM 84.4 °F 94.2 °F 77.0 °F 78% 30.03 in 10.0 mi SE 8.1 mph - N/A   Clear
1:35 PM 84.0 °F 94.0 °F 77.2 °F 80% 30.02 in 10.0 mi ESE 10.4 mph - N/A   Scattered Clouds
2:15 PM 83.7 °F 93.1 °F 77.0 °F 80% 30.01 in 10.0 mi ESE 8.1 mph - N/A   Mostly Cloudy
2:35 PM 83.3 °F 92.1 °F 76.6 °F 80% 30.00 in 10.0 mi ESE 9.2 mph - N/A   Clear
2:55 PM 83.3 °F 92.1 °F 76.5 °F 80% 30.00 in 10.0 mi ESE 8.1 mph - N/A   Clear
3:15 PM 83.3 °F 92.4 °F 77.0 °F 81% 29.98 in 10.0 mi SE 9.2 mph - N/A   Clear
3:35 PM 83.5 °F 92.9 °F 77.0 °F 81% 29.98 in 10.0 mi SE 6.9 mph - N/A   Clear
3:55 PM 84.0 °F 92.9 °F 76.1 °F 77% 29.97 in 10.0 mi SE 8.1 mph - N/A   Scattered Clouds
4:35 PM 84.7 °F 94.0 °F 75.9 °F 75% 29.96 in 10.0 mi SSE 9.2 mph - N/A   Scattered Clouds
4:55 PM 84.4 °F 92.4 °F 75.0 °F 73% 29.97 in 10.0 mi SSE 9.2 mph - N/A   Clear
5:15 PM 84.7 °F 92.5 °F 74.5 °F 71% 29.96 in 10.0 mi SSE 9.2 mph - N/A   Clear
5:35 PM 84.4 °F 91.7 °F 74.1 °F 71% 29.96 in 10.0 mi SSE 8.1 mph - N/A   Clear
5:55 PM 84.2 °F 91.6 °F 74.5 °F 72% 29.95 in 10.0 mi SSE 5.8 mph - N/A   Clear
6:15 PM 83.8 °F 90.8 °F 73.9 °F 72% 29.95 in 10.0 mi South 6.9 mph - N/A   Clear
6:35 PM 83.7 °F 90.4 °F 73.8 °F 72% 29.94 in 10.0 mi SSE 5.8 mph - N/A   Clear
6:55 PM 83.3 °F 90.2 °F 74.3 °F 74% 29.94 in 10.0 mi SSE 5.8 mph - N/A   Clear
7:15 PM 82.9 °F 90.2 °F 75.0 °F 77% 29.94 in 10.0 mi SSE 5.8 mph - N/A   Clear
7:35 PM 82.4 °F 89.8 °F 75.6 °F 80% 29.94 in 10.0 mi South 5.8 mph - N/A   Clear
7:55 PM 81.9 °F 89.2 °F 76.1 °F 83% 29.95 in 10.0 mi SSE 3.5 mph - N/A   Clear
8:15 PM 80.8 °F 87.1 °F 76.1 °F 86% 29.94 in 10.0 mi SSE 4.6 mph - N/A   Clear
8:35 PM 79.9 °F - 76.1 °F 88% 29.93 in 10.0 mi SE 3.5 mph - N/A   Clear
8:55 PM 79.3 °F - 76.1 °F 90% 29.93 in 10.0 mi SSE 4.6 mph - N/A   Clear
9:15 PM 79.2 °F - 76.1 °F 90% 29.93 in 10.0 mi South 4.6 mph - N/A   Clear
9:35 PM 79.2 °F - 76.1 °F 90% 29.94 in 10.0 mi South 4.6 mph - N/A   Clear
9:55 PM 78.8 °F - 75.7 °F 90% 29.95 in 10.0 mi South 3.5 mph - N/A   Clear
10:15 PM 78.4 °F - 75.7 °F 91% 29.94 in 10.0 mi SSE 3.5 mph - N/A   Clear
10:35 PM 78.1 °F - 75.7 °F 92% 29.94 in 10.0 mi SE 3.5 mph - N/A   Clear
10:55 PM 77.9 °F - 75.6 °F 92% 29.94 in 7.0 mi SSE 3.5 mph - N/A   Clear
11:15 PM 77.9 °F - 75.6 °F 92% 29.94 in 7.0 mi SE 3.5 mph - N/A   Clear
11:35 PM 77.5 °F - 75.4 °F 93% 29.95 in 10.0 mi Calm Calm - N/A   Clear
11:55 PM 77.5 °F - 75.4 °F 93% 29.95 in 7.0 mi Calm Calm - N/A   Clear